GW0309 Weather Reports


Display with metric or nautical units.
time (UTC)temp
F
wind
direction
speed
MPH
gust
MPH
rain 1hr
in
rain 24hr
in
rain mn
in
humidity
%
barometer
mb
20260902193707 0 136 2.0 2.0 0.00 0.00 0.00 1063.6
20260902193203 0 184 3.0 5.0 0.00 0.00 0.00 1063.7
20260902192701 0 180 1.0 5.0 0.00 0.00 0.00 1063.6
20260902192200 0 168 2.0 3.0 0.00 0.00 0.00 1064.0
20260902191655 0 184 3.0 6.0 0.00 0.00 0.00 1063.8
20260902191149 0 136 3.0 6.0 0.00 0.00 0.00 1063.8
20260902190645 0 159 5.0 9.0 0.00 0.00 0.00 1063.8
20260902190140 0 144 2.0 7.0 0.00 0.00 0.00 1064.0
20260902185636 0 151 1.0 6.0 0.00 0.00 0.00 1064.1
20260902185131 0 163 3.0 7.0 0.00 0.00 0.00 1063.8
20260902184626 0 187 1.0 5.0 0.00 0.00 0.00 1064.0
20260902184122 0 184 1.0 3.0 0.00 0.00 0.00 1064.1
20260902183618 0 157 2.0 3.0 0.00 0.00 0.00 1064.1
20260902183114 0 182 3.0 7.0 0.00 0.00 0.00 1064.3
20260902182610 0 210 3.0 3.0 0.00 0.00 0.00 1064.1
20260902182106 0 173 4.0 6.0 0.00 0.00 0.00 1064.5
20260902181602 0 252 1.0 3.0 0.00 0.00 0.00 1064.2
20260902181101 0 219 2.0 3.0 0.00 0.00 0.00 1064.4
20260902180601 0 239 2.0 3.0 0.00 0.00 0.00 1064.6
20260902180057 0 230 3.0 5.0 0.00 0.00 0.00 1064.5
20260902175556 0 160 2.0 3.0 0.00 0.00 0.00 1064.8
20260902175052 0 196 1.0 2.0 0.00 0.00 0.00 1064.7
20260902174549 0 145 0.0 1.0 0.00 0.00 0.00 1064.7
20260902174044 0 171 1.0 2.0 0.00 0.00 0.00 1064.6
20260902173543 0 172 2.0 5.0 0.00 0.00 0.00 1064.9
20260902173038 0 183 4.0 6.0 0.00 0.00 0.00 1065.0
20260902172533 0 167 1.0 3.0 0.00 0.00 0.00 1065.3
20260902172028 0 228 3.0 8.0 0.00 0.00 0.00 1065.2
20260902171524 0 191 3.0 6.0 0.00 0.00 0.00 1065.3
20260902171020 0 174 1.0 3.0 0.00 0.00 0.00 1065.1
20260902170514 0 186 2.0 6.0 0.00 0.00 0.00 1064.9
20260902170011 0 253 3.0 6.0 0.00 0.00 0.00 1065.2
20260902165509 0 146 1.0 2.0 0.00 0.00 0.00 1065.3
20260902165004 0 175 3.0 5.0 0.00 0.00 0.00 1065.6
20260902164459 0 127 3.0 5.0 0.00 0.00 0.00 1065.6
20260902163958 0 237 2.0 3.0 0.00 0.00 0.00 1065.7
20260902163454 0 150 3.0 5.0 0.00 0.00 0.00 1065.5
20260902162951 0 201 3.0 3.0 0.00 0.00 0.00 1065.7
20260902162446 0 195 1.0 5.0 0.00 0.00 0.00 1065.6
20260902161941 0 215 3.0 5.0 0.00 0.00 0.00 1065.6
20260902161436 0 82 2.0 3.0 0.00 0.00 0.00 1065.6
20260902160932 0 188 2.0 5.0 0.00 0.00 0.00 1065.7
20260902160427 0 171 3.0 6.0 0.00 0.00 0.00 1066.0
20260902155925 0 173 4.0 8.0 0.00 0.00 0.00 1065.8
20260902155420 0 250 4.0 8.0 0.00 0.00 0.00 1066.0
20260902154915 0 251 5.0 10.0 0.00 0.00 0.00 1065.8
20260902154410 0 189 3.0 8.0 0.00 0.00 0.00 1066.0
20260902153909 0 190 3.0 6.0 0.00 0.00 0.00 1065.8
20260902153408 0 180 3.0 7.0 0.00 0.00 0.00 1066.0
20260902152904 0 221 4.0 7.0 0.00 0.00 0.00 1065.8
20260902152400 0 205 3.0 7.0 0.00 0.00 0.00 1066.0
20260902151855 0 231 3.0 3.0 0.00 0.00 0.00 1066.1
20260902151350 0 286 5.0 9.0 0.00 0.00 0.00 1065.7
20260902150845 0 257 5.0 11.0 0.00 0.00 0.00 1065.6
20260902150341 0 163 2.0 5.0 0.00 0.00 0.00 1065.8
20260902145841 0 182 2.0 5.0 0.00 0.00 0.00 1065.6
20260902145336 0 258 3.0 10.0 0.00 0.00 0.00 1066.0
20260902144831 0 147 1.0 7.0 0.00 0.00 0.00 1065.7
20260902144327 0 157 2.0 2.0 0.00 0.00 0.00 1065.8
20260902143821 0 151 1.0 5.0 0.00 0.00 0.00 1065.8
20260902143316 0 152 2.0 2.0 0.00 0.00 0.00 1065.8
20260902142812 0 209 2.0 5.0 0.00 0.00 0.00 1066.1
20260902142308 0 164 2.0 6.0 0.00 0.00 0.00 1065.6
20260902141803 0 148 1.0 2.0 0.00 0.00 0.00 1065.6
20260902141258 0 148 1.0 2.0 0.00 0.00 0.00 1065.6
20260902140752 0 134 0.0 2.0 0.00 0.00 0.00 1065.7
20260902140248 0 193 1.0 2.0 0.00 0.00 0.00 1065.5
20260902135747 0 158 2.0 2.0 0.00 0.00 0.00 1065.5
20260902135243 0 166 2.0 2.0 0.00 0.00 0.00 1065.8
20260902134742 0 145 1.0 5.0 0.00 0.00 0.00 1066.0
20260902134237 0 161 2.0 5.0 0.00 0.00 0.00 1065.6
20260902133733 0 154 1.0 2.0 0.00 0.00 0.00 1066.1
20260902133231 0 139 1.0 3.0 0.00 0.00 0.00 1066.0
20260902132727 0 146 1.0 2.0 0.00 0.00 0.00 1065.7
20260902132217 0 164 3.0 5.0 0.00 0.00 0.00 1065.8
20260902131712 0 212 3.0 5.0 0.00 0.00 0.00 1065.8
20260902131208 0 149 1.0 2.0 0.00 0.00 0.00 1066.0
20260902130703 0 148 0.0 2.0 0.00 0.00 0.00 1065.8
20260902130159 0 134 2.0 2.0 0.00 0.00 0.00 1066.0
20260902125653 0 157 1.0 1.0 0.00 0.00 0.00 1066.0
20260902125150 0 155 1.0 2.0 0.00 0.00 0.00 1065.8
20260902124641 0 151 1.0 2.0 0.00 0.00 0.00 1065.8
20260902124141 0 148 1.0 3.0 0.00 0.00 0.00 1065.8
20260902123636 0 163 1.0 3.0 0.00 0.00 0.00 1065.7
20260902123131 0 143 1.0 2.0 0.00 0.00 0.00 1065.7
20260902122625 0 163 1.0 3.0 0.00 0.00 0.00 1065.8
20260902122120 0 138 1.0 2.0 0.00 0.00 0.00 1065.6
20260902121615 0 149 0.0 2.0 0.00 0.00 0.00 1065.6
20260902121110 0 159 1.0 1.0 0.00 0.00 0.00 1065.5
20260902120606 0 151 1.0 2.0 0.00 0.00 0.00 1065.4
20260902115557 0 157 2.0 3.0 0.00 0.00 0.00 1065.5
20260902115053 0 187 3.0 5.0 0.00 0.00 0.00 1065.4
20260902114549 0 162 1.0 3.0 0.00 0.00 0.00 1065.3
20260902114048 0 153 1.0 3.0 0.00 0.00 0.00 1065.3
20260902113544 0 155 1.0 2.0 0.00 0.00 0.00 1065.2
20260902113039 0 163 1.0 2.0 0.00 0.00 0.00 1065.1
20260902112534 0 152 1.0 1.0 0.00 0.00 0.00 1065.2
20260902112031 0 163 1.0 3.0 0.00 0.00 0.00 1065.2
20260902111527 0 160 1.0 2.0 0.00 0.00 0.00 1065.0
20260902111022 0 162 4.0 6.0 0.00 0.00 0.00 1065.2
20260902110519 0 162 1.0 3.0 0.00 0.00 0.00 1065.1
20260902110014 0 167 2.0 3.0 0.00 0.00 0.00 1065.0
20260902105509 0 179 2.0 5.0 0.00 0.00 0.00 1064.9
20260902105008 0 154 2.0 3.0 0.00 0.00 0.00 1065.0
20260902104504 0 147 1.0 2.0 0.00 0.00 0.00 1065.1
20260902103958 0 163 2.0 5.0 0.00 0.00 0.00 1064.7
20260902103454 0 150 2.0 2.0 0.00 0.00 0.00 1065.0
20260902102949 0 163 1.0 2.0 0.00 0.00 0.00 1064.9
20260902102446 0 155 2.0 2.0 0.00 0.00 0.00 1064.9
20260902101942 0 156 1.0 2.0 0.00 0.00 0.00 1064.9
20260902101442 0 158 1.0 1.0 0.00 0.00 0.00 1064.8
20260902100935 0 154 1.0 5.0 0.00 0.00 0.00 1064.8
20260902100430 0 185 2.0 3.0 0.00 0.00 0.00 1064.8
20260902095925 0 172 2.0 3.0 0.00 0.00 0.00 1065.0
20260902095425 0 149 0.0 3.0 0.00 0.00 0.00 1064.7
20260902094924 0 176 3.0 5.0 0.00 0.00 0.00 1064.9
20260902094420 0 151 1.0 3.0 0.00 0.00 0.00 1064.8
20260902093915 0 166 3.0 3.0 0.00 0.00 0.00 1064.7
20260902093410 0 181 1.0 5.0 0.00 0.00 0.00 1064.6
20260902092908 0 171 2.0 2.0 0.00 0.00 0.00 1064.7
20260902092404 0 161 3.0 5.0 0.00 0.00 0.00 1064.9
20260902091859 0 182 3.0 3.0 0.00 0.00 0.00 1064.7
20260902091354 0 164 2.0 3.0 0.00 0.00 0.00 1064.6
20260902090851 0 170 3.0 3.0 0.00 0.00 0.00 1064.6
20260902090351 0 173 2.0 5.0 0.00 0.00 0.00 1064.7
20260902085849 0 167 1.0 2.0 0.00 0.00 0.00 1064.7
20260902085345 0 155 1.0 2.0 0.00 0.00 0.00 1064.6
20260902084840 0 147 1.0 5.0 0.00 0.00 0.00 1064.7
20260902084337 0 148 1.0 3.0 0.00 0.00 0.00 1064.6
20260902083832 0 156 2.0 2.0 0.00 0.00 0.00 1064.6
20260902083331 0 155 1.0 3.0 0.00 0.00 0.00 1064.7
20260902082826 0 152 1.0 3.0 0.00 0.00 0.00 1064.4
20260902082317 0 158 1.0 3.0 0.00 0.00 0.00 1064.4
20260902081813 0 141 1.0 2.0 0.00 0.00 0.00 1064.5
20260902081309 0 150 1.0 2.0 0.00 0.00 0.00 1064.6
20260902080803 0 165 1.0 1.0 0.00 0.00 0.00 1064.6
20260902080301 0 147 1.0 2.0 0.00 0.00 0.00 1064.6
20260902075759 0 161 1.0 2.0 0.00 0.00 0.00 1064.8
20260902075255 0 158 3.0 3.0 0.00 0.00 0.00 1064.6
20260902074750 0 154 1.0 2.0 0.00 0.00 0.00 1064.7
20260902074246 0 151 1.0 2.0 0.00 0.00 0.00 1064.4
20260902073740 0 184 1.0 3.0 0.00 0.00 0.00 1064.6
20260902073236 0 168 1.0 2.0 0.00 0.00 0.00 1064.6
20260902072732 0 161 1.0 2.0 0.00 0.00 0.00 1064.6
20260902072228 0 167 2.0 2.0 0.00 0.00 0.00 1064.5
20260902071724 0 160 1.0 6.0 0.00 0.00 0.00 1064.5
20260902071219 0 154 1.0 3.0 0.00 0.00 0.00 1064.4
20260902070716 0 170 2.0 5.0 0.00 0.00 0.00 1064.5
20260902070215 0 184 3.0 3.0 0.00 0.00 0.00 1064.4
20260902065714 0 160 1.0 3.0 0.00 0.00 0.00 1064.2
20260902065210 0 166 3.0 3.0 0.00 0.00 0.00 1064.4
20260902064705 0 153 1.0 2.0 0.00 0.00 0.00 1064.7
20260902064201 0 180 2.0 3.0 0.00 0.00 0.00 1064.6
20260902063655 0 143 1.0 5.0 0.00 0.00 0.00 1064.4
20260902063150 0 158 2.0 3.0 0.00 0.00 0.00 1064.6
20260902062649 0 156 2.0 5.0 0.00 0.00 0.00 1064.5
20260902062145 0 162 3.0 5.0 0.00 0.00 0.00 1064.5
20260902061643 0 169 2.0 3.0 0.00 0.00 0.00 1064.5
20260902061140 0 175 2.0 6.0 0.00 0.00 0.00 1064.4
20260902060636 0 186 2.0 3.0 0.00 0.00 0.00 1064.4
20260902060132 0 182 3.0 3.0 0.00 0.00 0.00 1064.6
20260902055628 0 172 2.0 3.0 0.00 0.00 0.00 1064.2
20260902055123 0 166 1.0 5.0 0.00 0.00 0.00 1064.3
20260902054618 0 152 3.0 3.0 0.00 0.00 0.00 1064.3
20260902054114 0 181 3.0 5.0 0.00 0.00 0.00 1064.3
20260902053609 0 178 2.0 5.0 0.00 0.00 0.00 1064.4
20260902053109 0 180 3.0 6.0 0.00 0.00 0.00 1064.2
20260902052603 0 150 3.0 5.0 0.00 0.00 0.00 1064.2
20260902052059 0 151 1.0 3.0 0.00 0.00 0.00 1064.3
20260902051559 0 182 5.0 7.0 0.00 0.00 0.00 1064.4
20260902051057 0 188 5.0 7.0 0.00 0.00 0.00 1064.2
20260902050552 0 167 5.0 6.0 0.00 0.00 0.00 1064.3
20260902050047 0 174 3.0 3.0 0.00 0.00 0.00 1064.2
20260902045543 0 167 2.0 3.0 0.00 0.00 0.00 1064.1
20260902045039 0 168 2.0 6.0 0.00 0.00 0.00 1064.1
20260902044533 0 175 2.0 5.0 0.00 0.00 0.00 1064.3
20260902044029 0 164 2.0 5.0 0.00 0.00 0.00 1064.1
20260902043525 0 169 2.0 3.0 0.00 0.00 0.00 1063.9
20260902043024 0 173 3.0 5.0 0.00 0.00 0.00 1064.0
20260902042524 0 168 2.0 2.0 0.00 0.00 0.00 1064.0
20260902042019 0 159 1.0 2.0 0.00 0.00 0.00 1063.9
20260902041514 0 150 1.0 2.0 0.00 0.00 0.00 1063.9
20260902041009 0 149 1.0 3.0 0.00 0.00 0.00 1063.9
20260902040508 0 143 1.0 3.0 0.00 0.00 0.00 1063.9
20260902040003 0 141 1.0 1.0 0.00 0.00 0.00 1064.1
20260902035456 0 148 1.0 1.0 0.00 0.00 0.00 1063.9
20260902034950 0 152 1.0 1.0 0.00 0.00 0.00 1064.1
20260902034445 0 155 1.0 1.0 0.00 0.00 0.00 1063.9
20260902033944 0 163 2.0 3.0 0.00 0.00 0.00 1064.1
20260902033438 0 157 1.0 2.0 0.00 0.00 0.00 1064.0
20260902032937 0 165 2.0 3.0 0.00 0.00 0.00 1063.9
20260902032432 0 142 1.0 2.0 0.00 0.00 0.00 1064.2
20260902031926 0 159 1.0 2.0 0.00 0.00 0.00 1064.0
20260902031416 0 154 1.0 2.0 0.00 0.00 0.00 1064.0
20260902030912 0 145 0.0 1.0 0.00 0.00 0.00 1063.8
20260902030407 0 172 1.0 2.0 0.00 0.00 0.00 1063.7
20260902025905 0 146 0.0 2.0 0.00 0.00 0.00 1063.6
20260902025356 0 148 1.0 2.0 0.00 0.00 0.00 1063.9
20260902024855 0 172 1.0 2.0 0.00 0.00 0.00 1063.6
20260902024346 0 162 1.0 2.0 0.00 0.00 0.00 1063.6
20260902023841 0 170 3.0 3.0 0.00 0.00 0.00 1063.5
20260902023336 0 162 2.0 2.0 0.00 0.00 0.00 1063.7
20260902022834 0 155 1.0 1.0 0.00 0.00 0.00 1063.5
20260902022330 0 171 1.0 1.0 0.00 0.00 0.00 1063.4
20260902021826 0 160 1.0 2.0 0.00 0.00 0.00 1063.4
20260902021321 0 144 0.0 1.0 0.00 0.00 0.00 1063.4
20260902020817 0 154 1.0 1.0 0.00 0.00 0.00 1063.5
20260902020313 0 148 0.0 1.0 0.00 0.00 0.00 1063.4
20260902015808 0 147 0.0 1.0 0.00 0.00 0.00 1063.0
20260902015306 0 146 0.0 1.0 0.00 0.00 0.00 1062.9
20260902014800 0 149 0.0 0.0 0.00 0.00 0.00 1063.0
20260902014256 0 146 0.0 1.0 0.00 0.00 0.00 1062.8
20260902013755 0 155 1.0 2.0 0.00 0.00 0.00 1063.3
20260902013250 0 166 2.0 2.0 0.00 0.00 0.00 1063.0
20260902012745 0 153 1.0 1.0 0.00 0.00 0.00 1062.8
20260902012241 0 155 1.0 1.0 0.00 0.00 0.00 1063.1
20260902011736 0 150 1.0 1.0 0.00 0.00 0.00 1062.9
20260902011236 0 178 2.0 2.0 0.00 0.00 0.00 1062.8
20260902010730 0 159 1.0 2.0 0.00 0.00 0.00 1062.9
20260902010226 0 145 0.0 1.0 0.00 0.00 0.00 1062.9
20260902005724 0 152 0.0 1.0 0.00 0.00 0.00 1062.6
20260902005220 0 153 1.0 1.0 0.00 0.00 0.00 1062.8
20260902004719 0 153 0.0 1.0 0.00 0.00 0.00 1062.8
20260902004214 0 157 1.0 1.0 0.00 0.00 0.00 1063.1
20260902003704 0 158 1.0 2.0 0.00 0.00 0.00 1062.8
20260902003159 0 146 1.0 2.0 0.00 0.00 0.00 1062.9
20260902002654 0 161 1.0 1.0 0.00 0.00 0.00 1062.8
20260902002149 0 145 1.0 1.0 0.00 0.00 0.00 1063.0
20260902001644 0 146 1.0 2.0 0.00 0.00 0.00 1063.0
20260902001138 0 148 0.0 1.0 0.00 0.00 0.00 1063.1
20260902000633 0 147 0.0 1.0 0.00 0.00 0.00 1063.0
20260902000133 0 149 0.0 1.0 0.00 0.00 0.00 1063.0
20260901235628 0 145 0.0 1.0 0.00 0.00 0.00 1063.4
20260901235123 0 163 1.0 2.0 0.00 0.00 0.00 1063.1
20260901234622 0 150 1.0 3.0 0.00 0.00 0.00 1063.1
20260901234118 0 142 0.0 1.0 0.00 0.00 0.00 1063.3
20260901233613 0 152 1.0 2.0 0.00 0.00 0.00 1063.1
20260901233109 0 166 2.0 3.0 0.00 0.00 0.00 1062.9
20260901232604 0 187 1.0 2.0 0.00 0.00 0.00 1063.1
20260901232104 0 187 4.0 6.0 0.00 0.00 0.00 1063.3
20260901231601 0 194 3.0 3.0 0.00 0.00 0.00 1063.1
20260901231056 0 150 1.0 2.0 0.00 0.00 0.00 1063.5
20260901230552 0 171 4.0 5.0 0.00 0.00 0.00 1063.5
20260901230052 0 202 3.0 5.0 0.00 0.00 0.00 1063.1
20260901225546 0 162 0.0 5.0 0.00 0.00 0.00 1063.3
20260901225041 0 177 3.0 5.0 0.00 0.00 0.00 1063.3
20260901224537 0 141 2.0 5.0 0.00 0.00 0.00 1063.3
20260901224033 0 171 2.0 6.0 0.00 0.00 0.00 1063.0
20260901223528 0 173 5.0 8.0 0.00 0.00 0.00 1063.1
20260901223023 0 125 1.0 3.0 0.00 0.00 0.00 1063.3
20260901222520 0 175 1.0 3.0 0.00 0.00 0.00 1063.1
20260901222015 0 147 0.0 3.0 0.00 0.00 0.00 1063.1
20260901221510 0 150 1.0 3.0 0.00 0.00 0.00 1063.1
20260901221006 0 144 2.0 2.0 0.00 0.00 0.00 1063.3
20260901220500 0 137 1.0 5.0 0.00 0.00 0.00 1063.1
20260901215958 0 164 4.0 6.0 0.00 0.00 0.00 1063.3
20260901215457 0 172 1.0 6.0 0.00 0.00 0.00 1063.1
20260901214956 0 172 2.0 3.0 0.00 0.00 0.00 1063.0
20260901214455 0 151 5.0 7.0 0.00 0.00 0.00 1063.1
20260901213949 0 177 3.0 5.0 0.00 0.00 0.00 1063.5
20260901213444 0 203 4.0 6.0 0.00 0.00 0.00 1063.3
20260901212944 0 155 1.0 2.0 0.00 0.00 0.00 1063.5
20260901212439 0 163 3.0 5.0 0.00 0.00 0.00 1063.4
20260901211936 0 153 1.0 2.0 0.00 0.00 0.00 1063.4
20260901211431 0 146 4.0 5.0 0.00 0.00 0.00 1063.6
20260901210927 0 140 0.0 3.0 0.00 0.00 0.00 1063.7
20260901210423 0 158 1.0 2.0 0.00 0.00 0.00 1063.7
20260901205919 0 179 1.0 5.0 0.00 0.00 0.00 1063.6
20260901205413 0 143 1.0 3.0 0.00 0.00 0.00 1063.8
20260901204908 0 86 1.0 2.0 0.00 0.00 0.00 1063.6
20260901204405 0 142 1.0 2.0 0.00 0.00 0.00 1063.7
20260901203904 0 127 2.0 3.0 0.00 0.00 0.00 1063.9
20260901203358 0 174 0.0 2.0 0.00 0.00 0.00 1063.8
20260901202854 0 247 3.0 6.0 0.00 0.00 0.00 1063.9
20260901202348 0 175 3.0 5.0 0.00 0.00 0.00 1064.2
20260901201845 0 251 5.0 7.0 0.00 0.00 0.00 1063.8
20260901201344 0 155 1.0 5.0 0.00 0.00 0.00 1064.1
20260901200838 0 143 0.0 3.0 0.00 0.00 0.00 1064.0
20260901200333 0 83 1.0 3.0 0.00 0.00 0.00 1064.3
20260901195832 0 138 4.0 5.0 0.00 0.00 0.00 1064.3
20260901195325 0 154 1.0 2.0 0.00 0.00 0.00 1064.3
20260901194821 0 168 6.0 9.0 0.00 0.00 0.00 1064.3
20260901194315 0 171 2.0 3.0 0.00 0.00 0.00 1064.4